Simultaneous Nadir Overpasses (SNOs) Predictions

Prediction of SNOs between TERRA and METOP-C Satellite Orbit:

Table of predicted SNOs for the next 14.0 days since TLE Epoch: 4/3/2021
Index Date (TERRA) Time (TERRA) Lat,Lon (TERRA) SZA (TERRA ) Date (METOP-C) Time (METOP-C) Lat,Lon (METOP-C) SZA (METOP-C ) Distance(km) Time Diff (sec)
1 04/05/2021 22:12:33 81.29,-106.98 77.49 04/05/2021 22:11:57 81.29,-106.84 77.49 2.33 36
2 04/05/2021 23:01:59 -81.30, 60.95 102.49 04/05/2021 23:02:36 -81.30, 60.96 102.47 0.82 37
3 04/08/2021 17:46:47 81.28, -40.62 76.45 04/08/2021 17:46:20 81.29, -40.59 76.44 0.65 27
4 04/08/2021 18:36:13 -81.30, 127.34 103.52 04/08/2021 18:36:59 -81.30, 127.21 103.52 2.30 46
5 04/11/2021 13:21:01 81.28, 25.71 75.42 04/11/2021 13:20:43 81.28, 25.65 75.41 1.20 18
6 04/11/2021 14:10:27 -81.30,-166.31 104.55 04/11/2021 14:11:21 -81.30,-166.17 104.51 2.32 54
7 04/14/2021 08:55:13 81.29, 92.40 74.46 04/14/2021 08:55:04 81.29, 92.27 74.44 2.27 9
8 04/14/2021 09:44:40 -81.29, -99.98 105.56 04/14/2021 09:45:43 -81.30, -99.95 105.52 0.67 63



Historial Predications of SNOs between TERRA and METOP-C
